Location: Newark
(50.4348°N, 30.5552°E)
Time: 06:42:14
(UTC+00:00)

Vanguard 3 - Pass Details

Date: 26 January 2020
Orbit: 508 x 3263 km, 33.3° (Epoch: 27 February)

Event Time Altitude Azimuth Distance (km) Brightness Sun altitude
Rises 19:10:45 0° 266° (W) 7,193 12.6 -42.4°
Reaches altitude 10° 19:16:30 10° 259° (W) 6,015 12.0 -43.2°
Maximum altitude 19:31:12 33° 205° (SSW) 3,578 10.2 -45.3°
Enters shadow 19:31:14 33° 205° (SSW) 3,575 10.2 -45.3°
